EN

Hourly Weather Chernitovo

Today, 30 September, Wednesday

Time Temperature Precipitation Wind Pressure Humidity
00:00 +12°C° 0 mm 3 mps 760 mmHg 58%
01:00 +12°C° 0 mm 3 mps 760 mmHg 61%
02:00 +11°C° 0 mm 3 mps 760 mmHg 63%
03:00 +11°C° 0 mm 4 mps 760 mmHg 66%
04:00 +11°C° 0 mm 3 mps 760 mmHg 64%
05:00 +11°C° 0 mm 3 mps 760 mmHg 62%
06:00 +11°C° 0 mm 3 mps 760 mmHg 59%
07:00 +12°C° 0 mm 4 mps 760 mmHg 56%
08:00 +13°C° 0 mm 4 mps 760 mmHg 53%
09:00 +14°C° 0 mm 4 mps 760 mmHg 49%
10:00 +15°C° 0 mm 5 mps 760 mmHg 46%
11:00 +17°C° 0 mm 5 mps 760 mmHg 43%
12:00 +19°C° 0 mm 5 mps 760 mmHg 40%
13:00 +20°C° 0 mm 5 mps 760 mmHg 39%
14:00 +20°C° 0 mm 5 mps 759 mmHg 39%
15:00 +20°C° 0 mm 5 mps 759 mmHg 39%
16:00 +19°C° 0 mm 5 mps 759 mmHg 43%
17:00 +17°C° 0 mm 4 mps 759 mmHg 47%
18:00 +15°C° 0 mm 4 mps 759 mmHg 51%
19:00 +15°C° 0 mm 4 mps 759 mmHg 51%
20:00 +14°C° 0 mm 4 mps 759 mmHg 51%
21:00 +14°C° 0 mm 4 mps 760 mmHg 51%
22:00 +14°C° 0 mm 4 mps 760 mmHg 52%
23:00 +13°C° 0 mm 3 mps 760 mmHg 53%

Tomorrow, 1 October, Thursday

Time Temperature Precipitation Wind Pressure Humidity
00:00 +13°C° 0 mm 3 mps 760 mmHg 54%
01:00 +12°C° 0 mm 3 mps 760 mmHg 55%
02:00 +12°C° 0 mm 3 mps 760 mmHg 55%
03:00 +12°C° 0 mm 3 mps 760 mmHg 56%
04:00 +11°C° 0 mm 3 mps 760 mmHg 56%
05:00 +11°C° 0 mm 3 mps 760 mmHg 57%
06:00 +11°C° 0 mm 3 mps 760 mmHg 57%
07:00 +12°C° 0 mm 3 mps 760 mmHg 54%
08:00 +13°C° 0 mm 4 mps 761 mmHg 51%
09:00 +14°C° 0 mm 4 mps 761 mmHg 48%
10:00 +17°C° 0 mm 4 mps 761 mmHg 43%
11:00 +19°C° 0 mm 5 mps 761 mmHg 38%
12:00 +20°C° 0 mm 5 mps 761 mmHg 33%
13:00 +20°C° 0 mm 5 mps 760 mmHg 33%
14:00 +20°C° 0 mm 5 mps 760 mmHg 32%
15:00 +21°C° 0 mm 5 mps 760 mmHg 32%
16:00 +19°C° 0 mm 4 mps 760 mmHg 37%
17:00 +17°C° 0 mm 4 mps 760 mmHg 42%
18:00 +16°C° 0 mm 3 mps 760 mmHg 46%
19:00 +14°C° 0 mm 3 mps 760 mmHg 47%
20:00 +13°C° 0 mm 3 mps 760 mmHg 48%
21:00 +12°C° 0 mm 3 mps 760 mmHg 49%
22:00 +12°C° 0 mm 3 mps 760 mmHg 51%
23:00 +12°C° 0 mm 3 mps 760 mmHg 52%

Day after tomorrow, 2 October, Friday

Time Temperature Precipitation Wind Pressure Humidity
00:00 +12°C° 0 mm 3 mps 760 mmHg 53%
01:00 +11°C° 0 mm 3 mps 761 mmHg 55%
02:00 +11°C° 0 mm 3 mps 761 mmHg 57%
03:00 +11°C° 0 mm 3 mps 761 mmHg 59%
04:00 +10°C° 0 mm 3 mps 761 mmHg 62%
05:00 +10°C° 0 mm 3 mps 761 mmHg 64%
06:00 +10°C° 0 mm 3 mps 761 mmHg 66%
07:00 +12°C° 0 mm 3 mps 761 mmHg 65%
08:00 +13°C° 0 mm 3 mps 761 mmHg 63%
09:00 +14°C° 0 mm 4 mps 761 mmHg 61%
10:00 +17°C° 0 mm 4 mps 761 mmHg 57%
11:00 +18°C° 0 mm 4 mps 761 mmHg 54%
12:00 +19°C° 0 mm 5 mps 761 mmHg 50%
13:00 +19°C° 0 mm 5 mps 761 mmHg 49%
14:00 +20°C° 0 mm 4 mps 761 mmHg 49%
15:00 +20°C° 0 mm 4 mps 761 mmHg 48%
16:00 +18°C° 0 mm 4 mps 760 mmHg 53%
17:00 +17°C° 0 mm 3 mps 760 mmHg 58%
18:00 +16°C° 0 mm 3 mps 760 mmHg 63%
19:00 +14°C° 0 mm 3 mps 761 mmHg 64%
20:00 +13°C° 0 mm 3 mps 761 mmHg 66%
21:00 +13°C° 0 mm 3 mps 761 mmHg 68%
22:00 +12°C° 0 mm 3 mps 761 mmHg 68%
23:00 +12°C° 0 mm 3 mps 761 mmHg 68%

3 October, Saturday

Time Temperature Precipitation Wind Pressure Humidity
00:00 +12°C° 0 mm 3 mps 761 mmHg 68%
01:00 +12°C° 0 mm 2 mps 761 mmHg 69%
02:00 +12°C° 0 mm 2 mps 761 mmHg 69%
03:00 +12°C° 0 mm 2 mps 761 mmHg 70%
04:00 +10°C° 0 mm 2 mps 761 mmHg 69%
05:00 +10°C° 0 mm 2 mps 761 mmHg 68%
06:00 +10°C° 0 mm 3 mps 761 mmHg 67%
07:00 +11°C° 0 mm 3 mps 761 mmHg 63%
08:00 +12°C° 0 mm 3 mps 761 mmHg 59%
09:00 +14°C° 0 mm 3 mps 761 mmHg 54%
10:00 +16°C° 0 mm 3 mps 762 mmHg 49%
11:00 +18°C° 0 mm 4 mps 762 mmHg 45%
12:00 +19°C° 0 mm 4 mps 762 mmHg 40%
13:00 +20°C° 0 mm 4 mps 761 mmHg 39%
14:00 +20°C° 0 mm 4 mps 761 mmHg 39%
15:00 +20°C° 0 mm 4 mps 761 mmHg 38%
16:00 +18°C° 0 mm 3 mps 761 mmHg 43%
17:00 +17°C° 0 mm 3 mps 761 mmHg 48%
18:00 +15°C° 0 mm 2 mps 761 mmHg 53%
19:00 +14°C° 0 mm 3 mps 761 mmHg 55%
20:00 +13°C° 0 mm 3 mps 761 mmHg 57%
21:00 +12°C° 0 mm 3 mps 762 mmHg 59%
22:00 +13°C° 0 mm 2 mps 762 mmHg 59%
23:00 +13°C° 0 mm 2 mps 762 mmHg 60%

4 October, Sunday

Time Temperature Precipitation Wind Pressure Humidity
00:00 +12°C° 0 mm 2 mps 762 mmHg 60%
01:00 +12°C° 0 mm 2 mps 762 mmHg 61%
02:00 +12°C° 0 mm 2 mps 762 mmHg 62%
03:00 +12°C° 0 mm 2 mps 762 mmHg 62%
04:00 +12°C° 0 mm 2 mps 762 mmHg 63%
05:00 +12°C° 0 mm 2 mps 762 mmHg 63%
06:00 +12°C° 0 mm 2 mps 762 mmHg 64%
07:00 +13°C° 0 mm 2 mps 762 mmHg 62%
08:00 +14°C° 0 mm 2 mps 762 mmHg 61%
09:00 +15°C° 0 mm 2 mps 762 mmHg 59%
10:00 +16°C° 0 mm 2 mps 762 mmHg 55%
11:00 +17°C° 0 mm 3 mps 762 mmHg 51%
12:00 +19°C° 0 mm 3 mps 762 mmHg 47%
13:00 +19°C° 0 mm 3 mps 762 mmHg 47%
14:00 +19°C° 0 mm 3 mps 762 mmHg 47%
15:00 +19°C° 0 mm 3 mps 762 mmHg 47%
16:00 +18°C° 0 mm 3 mps 762 mmHg 53%
17:00 +16°C° 0 mm 2 mps 762 mmHg 59%
18:00 +15°C° 0 mm 2 mps 762 mmHg 65%
19:00 +14°C° 0 mm 2 mps 762 mmHg 67%
20:00 +13°C° 0 mm 2 mps 762 mmHg 69%
21:00 +12°C° 0 mm 2 mps 762 mmHg 70%
22:00 +12°C° 0 mm 2 mps 762 mmHg 70%
23:00 +12°C° 0 mm 2 mps 763 mmHg 71%

5 October, Monday

Time Temperature Precipitation Wind Pressure Humidity
00:00 +12°C° 0 mm 2 mps 763 mmHg 71%
01:00 +10°C° 0 mm 2 mps 762 mmHg 72%
02:00 +10°C° 0 mm 2 mps 762 mmHg 73%
03:00 +10°C° 0 mm 2 mps 762 mmHg 75%
04:00 +10°C° 0 mm 2 mps 762 mmHg 75%
05:00 +10°C° 0 mm 2 mps 763 mmHg 76%
06:00 +10°C° 0 mm 2 mps 763 mmHg 76%
07:00 +12°C° 0 mm 2 mps 763 mmHg 72%
08:00 +12°C° 0 mm 3 mps 763 mmHg 68%
09:00 +13°C° 0 mm 3 mps 762 mmHg 64%
10:00 +14°C° 0 mm 3 mps 762 mmHg 59%
11:00 +17°C° 0 mm 3 mps 762 mmHg 54%
12:00 +18°C° 0 mm 3 mps 762 mmHg 50%
13:00 +18°C° 0 mm 3 mps 762 mmHg 48%
14:00 +19°C° 0 mm 3 mps 762 mmHg 47%
15:00 +19°C° 0 mm 3 mps 762 mmHg 45%
16:00 +18°C° 0 mm 3 mps 761 mmHg 50%
17:00 +16°C° 0 mm 3 mps 761 mmHg 55%
18:00 +15°C° 0 mm 2 mps 761 mmHg 60%
19:00 +14°C° 0 mm 2 mps 761 mmHg 62%
20:00 +13°C° 0 mm 3 mps 761 mmHg 64%
21:00 +12°C° 0 mm 3 mps 761 mmHg 65%
22:00 +12°C° 0 mm 3 mps 761 mmHg 65%
23:00 +12°C° 0 mm 3 mps 761 mmHg 65%
Show more

We Need Your Consent

Meteoprog and our Service Providers may store and access personal data such as cookies, device identifiers or other similar technologies on your device and process such data to personalise content and ads, as well as provide social media features and to analyse the traffic.

  • Store and/or access information on your device

    Cookies, device identifiers or other information can be stored or accessed on your device for the purposes indicated above.

  • Personalised ads and content, ad and content measurement, audience insights, and products development

    Ads and content can be personalised based on a profile. More data can be added to better personalise ads and content. Ad and content performance can be measured. Insights about the audience who saw the ads and content can be derived. Such data can be used to develop or improve user’s experience, systems and software.

By clicking ‘I Agree’ you will allow the use of indicated cookies, device identifiers, web beacons or other similar technologies. Your settings can be changed in the browser on your device.

For certain purposes, legitimate interests may be relied on, rather than consent. You can read more about this in our Privacy and Cookie Policy.